Regional Weather Roundup
Issued by NWS Midland/Odessa, TX

Skip options and go directly to product.
Home | Oldest Version | Previous Version | Current Version | All | Text Only | Save Text | Print | Product List | Glossary On

Skip product version selection by date and time.   
866
ASUS44 KMAF 090510
RWRMAF
MIDLAND AREA WEATHER ROUNDUP
NATIONAL WEATHER SERVICE MIDLAND TX
1100 PM CST MON FEB 08 2016

...IN SOUTHWEST TEXAS AND SOUTHEAST NEW MEXICO...

CITY           SKY/WX    TMP DP  RH WIND       PRES   REMARKS
ALPINE         CLOUDY    32  17  52 SW3       30.45R
ANDREWS        FAIR      36  19  50 SW7       30.41S WCI  30
ARTESIA        CLOUDY    36  16  44 CALM      30.42R
BIG SPRING     CLEAR     33  16  49 CALM      30.41S
CARLSBAD       CLOUDY    28  15  58 S9        30.42R WCI  19
DRYDEN           N/A     41  14  33 N6        30.39R WCI  37
FORT STOCKTON  CLOUDY    36  21  54 S8        30.42R WCI  30
GUAD PASS      CLOUDY    39  10  30 NE9       30.40R WCI  33
HOBBS          CLOUDY    32  14  47 SW9       30.42S WCI  24
MARFA          CLOUDY    26  14  60 NE8       30.41R WCI  18
MIDLAND AIRPK  CLEAR     40  17  39 W6        30.42R WCI  36
MIDLAND INTL   CLEAR     35  19  52 W8        30.41S WCI  29
ODESSA         CLEAR     40  16  37 W5        30.42R WCI  37
PECOS          CLOUDY    36  15  43 CALM      30.43R
PRESIDIO       FAIR      48  12  23 N7        30.37R
SEMINOLE       CLEAR     36  17  45 W3        30.42R
SNYDER           N/A     41  20  43 NW8       30.39R WCI  36
WINK           CLEAR     35  14  42 N7        30.42R WCI  29
$$
...OTHER STATIONS IN TEXAS...

CITY           SKY/WX    TMP DP  RH WIND       PRES   REMARKS
ABILENE        CLEAR     38  19  46 CALM      30.36R
AMARILLO       CLEAR     36  20  52 W8        30.37S WCI  30
AUSTIN         CLEAR     43  22  43 W7        30.35R WCI  39
BROWNSVILLE    CLOUDY    50  42  74 CALM      30.39R
CORPUS CHRISTI CLOUDY    48  19  31 NW6       30.36S
DALLAS FTW     CLEAR     44  11  26 NW12      30.28R WCI  38
DEL RIO        CLEAR     44  21  40 CALM      30.39S
EL PASO        PTCLDY    45  14  28 N3        30.36R
HOUSTON INT    PTCLDY    47  16  29 W8        30.29R
LUBBOCK        CLEAR     34  18  52 NW8       30.39R WCI  27
SAN ANGELO     CLEAR     40  17  39 W10       30.38R WCI  33
SAN ANTONIO    PTCLDY    42  25  50 NW7       30.36S WCI  38
WACO           CLEAR     35  18  49 W9        30.31S WCI  28
WICHITA FALLS  NOT AVBL
$$
...OTHER LOCATIONS IN NEW MEXICO...

CITY           SKY/WX    TMP DP  RH WIND       PRES   REMARKS
ALAMAGORDO     CLOUDY    39  14  35 CALM      30.37R
ALBUQUERQUE    CLOUDY    44  23  43 N7        30.40R
CANNON AFB     CLOUDY    32  14  48 N3        30.40R
CLOVIS         CLOUDY    30  16  55 NW6       30.41S WCI  24
HOLLOMAN AFB   CLOUDY    40  14  34 SE3       30.35R
ROSWELL        CLOUDY    33  15  47 W6        30.41R WCI  28
RUIDOSO          N/A     32  14  47 SE5       30.42R WCI  27
SANTA FE       CLOUDY    33  20  58 CALM      30.40R
TRUTH OR CONSE CLEAR     41  14  33 W7        30.36R WCI  36
TUCUMCARI      CLOUDY    30  15  53 SW5       30.39S WCI  25
$$

USA.gov is the U.S. government's official web portal to all federal, state and local government web resources and services.